AmicalSat
1 46287U 20061R 23060.14590857 .00014801 00000-0 75644-3 0 9999
2 46287 97.4139 128.8579 0003423 109.6636 250.4967 15.16762189137319
SALSAT
1 46495U 20068K 23060.43319736 .00006594 00000-0 45085-3 0 9990
2 46495 97.7586 7.4743 0017846 121.6504 238.6466 15.06348862132848
BY70-3
1 46839U 20079N 23061.70064119 .00232665 00000-0 17894-2 0 9993
2 46839 97.1618 138.2175 0002526 178.7330 332.1837 15.71322268130261
CAPE 3
1 47309U 21002A 23061.52649164 .00030119 00000-0 91642-3 0 9996
2 47309 60.6799 109.1815 0034883 120.7177 239.7359 15.33292878117889
AO-109
1 47311U 21002C 23061.10077360 .00021415 00000-0 67175-3 0 9999
2 47311 60.6824 108.3819 0032960 117.4628 242.9822 15.32561331117843
MiTEE 1
1 47314U 21002F 23061.73748126 .00091818 00000-0 16132-2 0 9996
2 47314 60.6749 86.4973 0027958 102.2266 258.1967 15.49492168118287
ExoCube 2
1 47319U 21002L 23061.63971015 .00023985 00000-0 76425-3 0 9997
2 47319 60.6808 108.0823 0033390 119.6569 240.7854 15.31988377117855
UVSQ-SAT
1 47438U 21006AB 23061.63506928 .00017318 00000-0 79292-3 0 9998
2 47438 97.4015 120.4688 0011909 98.0135 262.2452 15.20498698116439
YUSAT 1
1 47439U 21006AC 23061.14303249 .00019270 00000-0 84615-3 0 9990
2 47439 97.4020 120.4111 0011399 98.9428 261.3099 15.21916477116386
SOMP 2b
1 47445U 21006AJ 23061.37912913 .00015860 00000-0 73941-3 0 9997
2 47445 97.3983 119.6207 0011683 102.8783 257.3758 15.19897262116374
IDEASSat
1 47458U 21006AX 23061.39297479 .00014413 00000-0 67888-3 0 9992
2 47458 97.4074 120.3588 0011035 101.5699 258.6775 15.19571712116365
CubeSX-Sirius-HSE
1 47951U 21022V 23061.11053625 .00015198 00000-0 91265-3 0 9998
2 47951 97.5090 320.3224 0019444 350.5853 149.5758 15.10839751106843
CubeSX-HSE
1 47952U 21022W 23061.80436263 .00013751 00000-0 82463-3 0 9991
2 47952 97.5088 321.0389 0019338 346.2351 86.6658 15.10914371106952
KSU-Cubesat
1 47954U 21022Y 23061.62922905 .00013169 00000-0 77805-3 0 9993
2 47954 97.5097 321.1198 0018873 347.4572 12.6186 15.11471853106661
GRBAlpha
1 47959U 21022AD 23061.79572543 .00013251 00000-0 79370-3 0 9996
2 47959 97.5094 321.0975 0018906 347.1242 84.1069 15.10972509105771
Orbicraft-Zorkiy
1 47960U 21022AE 23061.85875021 .00014083 00000-0 83287-3 0 9998
2 47960 97.5123 321.4580 0018903 346.0118 78.1475 15.11418577106483
STECCO
1 47962U 21022AG 23061.75719253 .00022691 00000-0 12008-2 0 9999
2 47962 97.5072 322.9646 0013473 341.0012 103.7228 15.15369787105899
DO-111
1 47963U 21022AH 23061.69196236 .00084962 00000-0 28413-2 0 9999
2 47963 97.5116 326.8787 0009767 339.1614 20.9227 15.30607856106153
MO-110
1 47964U 21022AJ 23061.64315111 .00023036 00000-0 11978-2 0 9993
2 47964 97.5105 323.3169 0015615 336.8009 23.2517 15.15961674105903
FEES
1 48082U 21022AL 23060.28628526 .00038428 00000-0 18284-2 0 9999
2 48082 97.5099 322.4427 0011799 341.5822 18.4983 15.19000683105438
CSS
1 48274U 21035A 23061.56837954 .00020874 00000-0 23893-3 0 9994
2 48274 41.4749 86.1917 0003843 345.6548 156.4069 15.61624209105150
TUBIN
1 48900U 21059X 23061.82012968 .00010665 00000-0 54181-3 0 9996
2 48900 97.5802 195.0261 0008771 290.4100 225.4720 15.17033962 93031
IT-SPINS
1 49017U 21013G 23060.87443336 .00029379 00000-0 86716-3 0 9998
2 49017 51.5936 242.0596 0007959 278.5064 81.5016 15.34703637 93183
LEDSAT
1 49069U 21073D 23061.12193783 .00009892 00000-0 57797-3 0 9993
2 49069 97.4946 133.9231 0026503 128.9454 231.4144 15.11795089 84715
CUTE
1 49263U 21088D 23060.16138156 .00009655 00000-0 66199-3 0 9994
2 49263 97.5570 127.9443 0017461 270.6224 89.3002 15.06110455 78017
TeikyoSat 4
1 49396U 21102B 23060.87266310 .00002651 00000-0 20798-3 0 9994
2 49396 97.5342 116.1366 0016809 100.6373 259.6746 15.01667978 71660
Z-Sat
1 49399U 21102E 23061.13332634 .00004014 00000-0 29391-3 0 9993
2 49399 97.5016 117.4969 0024270 75.9139 284.4782 15.03887494 71798
KOSEN 1
1 49402U 21102H 23061.58874097 .00005216 00000-0 36640-3 0 9991
2 49402 97.4932 118.2863 0022575 64.3432 296.0123 15.05340409 71919
HO-113
1 50466U 21131B 23061.14651119 .00000889 00000-0 30412-3 0 9997
2 50466 98.5576 143.0226 0005659 103.4522 256.7296 14.38707382 61965
Tevel-3
1 50988U 22002E 23061.15249664 .00025163 00000-0 11624-2 0 9998
2 50988 97.4480 129.1404 0008120 242.7610 174.3949 15.20150904 62471
Tevel-8
1 50989U 22002F 23061.77428477 .00021517 00000-0 99608-3 0 9996
2 50989 97.4493 129.8015 0008025 238.7958 260.0841 15.20110398 62562
Tevel-5
1 50998U 22002Q 23061.14920073 .00026135 00000-0 11844-2 0 9992
2 50998 97.4462 129.4097 0009506 238.4591 180.4491 15.20789770 62493
Tevel-6
1 50999U 22002R 23061.14783517 .00026308 00000-0 11920-2 0 9990
2 50999 97.4456 129.4057 0009434 239.6079 178.8518 15.20796340 62499
Tevel-1
1 51013U 22002AF 23061.15858021 .00024692 00000-0 11419-2 0 9999
2 51013 97.4464 129.1054 0007873 242.5427 169.7156 15.20117676 62479
Grizu-263a
1 51025U 22002AT 23061.15070522 .00048762 00000-0 17111-2 0 9993
2 51025 97.4637 132.1458 0010349 238.5635 121.4593 15.29212808 62612
NO-116
1 51031U 22002AZ 23061.16319094 .00030397 00000-0 12416-2 0 9999
2 51031 97.4600 130.9702 0010868 242.0337 117.9800 15.24280683 62557
IRIS-A
1 51044U 22002BN 23060.90846385 .00010506 00000-0 53744-3 0 9992
2 51044 97.4491 128.1214 0007487 248.4651 111.5785 15.16798609 62384
Tevel-7
1 51062U 22002CG 23061.16336295 .00024378 00000-0 11281-2 0 9996
2 51062 97.4473 129.1746 0007849 239.9318 147.6027 15.20097742 62476
Tevel-4
1 51063U 22002CH 23061.16635943 .00024948 00000-0 11554-2 0 9995
2 51063 97.4486 129.1687 0007750 241.7762 145.2540 15.20067672 62473
Tevel-2
1 51069U 22002CP 23061.15347668 .00025159 00000-0 11622-2 0 9995
2 51069 97.4473 129.1184 0008144 240.4179 171.7915 15.20150738 62479
DELFI-PQ
1 51074U 22002CU 23061.11384946 .00034609 00000-0 13186-2 0 9994
2 51074 97.4730 132.6488 0010795 270.4995 89.5007 15.26580418 62613
SO-115
1 51080U 22002DA 23060.98579579 .00021652 00000-0 92053-3 0 9998
2 51080 97.4748 131.8216 0010892 275.0870 84.9123 15.22997973 62544
SO-114
1 51081U 22002DB 23060.12871485 .00023292 00000-0 98849-3 0 9997
2 51081 97.4737 130.9316 0011215 278.2000 81.7964 15.23040289 62418
OreSat0
1 52017U 22026K 23060.74203402 .00019343 00000-0 88269-3 0 9996
2 52017 97.5117 63.1340 0027294 99.5830 260.8491 15.20316397 53197
Planetum 1
1 52738U 22057G 23061.80371379 .00017396 00000-0 89312-3 0 9993
2 52738 97.5252 178.1585 0007181 1.3908 358.7343 15.16553123 42517
Foresail-1
1 52766U 22057AL 23061.84247822 .00012400 00000-0 63364-3 0 9993
2 52766 97.5357 178.9939 0012006 342.5223 135.1173 15.16757409 42541
SNUGLITE 2
1 52899U 22065F 23060.90007458 .00002187 00000-0 47633-3 0 9996
2 52899 98.0495 208.8558 0008078 184.7171 175.3954 14.58883697 35212
CTIM
1 52950U 22074G 23061.17509214 .00039419 00000-0 12150-2 0 9994
2 52950 45.0011 233.1089 0011249 264.7963 95.1792 15.32961364 37120
IO-117
1 53106U 22080B 23059.10218779 -.00000003 00000-0 00000-0 0 9995
2 53106 70.1827 357.6158 0008468 211.9521 148.0626 6.42557162 14745
